Home   Weather   Belleville   Past weeks

Flag for Canada Past Weather in Belleville, Ontario, Canada — Yesterday and Last 2 Weeks

Now
63 °F

Passing clouds.


Feels Like: 63 °F
Forecast: 54 / 65 °F
Wind: 9 mph from Northeast

Location: Trenton

Current Time: Sep 28, 2016 at 11:31:48 PM

Latest Report: Sep 28, 2016 at 11:00 PM


Visibility: 15 mi

Pressure: 30.25 "Hg

Humidity: 73%

Dew Point: 54 °F

Location of BellevilleLocation

Past Weather in Belleville — Graph

°F

Belleville Temperature Yesterday

Maximum temperature yesterday: 66 °F (at 11:00 AM)
Minimum temperature yesterday: 45 °F (at 7:00 AM)
Average temperature yesterday: 57 °F

High & Low Weather Summary for the Past Weeks

 TemperatureHumidityPressure
High81 °F (Sep 20, 5:00 PM)100% (Sep 18, 9:00 PM)30.38 "Hg (Sep 18, 9:00 PM)
Low39 °F (Sep 25, 6:00 AM)32% (Sep 24, 4:00 PM)29.81 "Hg (Sep 27, 1:00 PM)
Average62 °F73%30.09 "Hg
* Reported Sep 13 10:00 PM — Sep 28 10:00 PM, Belleville, Weather by CustomWeather, © 2016

Note: Actual official high and low records may vary slightly from our data, if they occured in-between our weather recording intervals... More about our weather records

Advertising

Belleville Weather History for the Previous 24 Hours

Scroll right to see more
 ConditionsComfort  
Time TempWeatherWind HumidityBarometerVisibility
10:00 PM
Wed, Sep 28
63 °FPassing clouds.7 mph73%30.23 "Hg15 mi
9:00 PM64 °FPassing clouds.7 mph68%30.22 "Hg15 mi
8:00 PM66 °FPassing clouds.8 mph64%30.19 "Hg15 mi
7:00 PM68 °FPartly cloudy.8 mph56%30.15 "Hg15 mi
6:00 PM70 °FScattered clouds.8 mph50%30.14 "Hg15 mi
5:00 PM72 °FPartly sunny.6 mph44%30.12 "Hg15 mi
4:00 PM73 °FPassing clouds.13 mph44%30.11 "Hg15 mi
3:00 PM73 °FPartly sunny.7 mph47%30.11 "Hg15 mi
2:00 PM73 °FPartly sunny.9 mph41%30.11 "Hg15 mi
1:00 PM73 °FPartly sunny.7 mph41%30.10 "Hg15 mi
12:00 PM72 °FBroken clouds.9 mph47%30.09 "Hg15 mi
11:00 AM72 °FPartly sunny.7 mph50%30.08 "Hg15 mi
10:00 AM66 °FPartly sunny.5 mph68%30.07 "Hg15 mi
9:00 AM63 °FScattered clouds.2 mph77%30.05 "Hg15 mi
8:00 AM57 °FPassing clouds.6 mph77%30.03 "Hg15 mi
7:00 AM63 °FPassing clouds.5 mph68%30.01 "Hg15 mi
6:00 AM63 °FOvercast.7 mph73%29.99 "Hg15 mi
5:46 AM63 °FOvercast.6 mph73%29.98 "Hg15 mi
5:00 AM63 °FOvercast.6 mph73%29.97 "Hg15 mi
4:00 AM59 °FOvercast.2 mph82%29.95 "Hg15 mi
3:00 AM55 °FPassing clouds.3 mph82%29.94 "Hg15 mi
2:00 AM55 °FPassing clouds.No wind88%29.94 "Hg15 mi
1:00 AM55 °FPassing clouds.No wind88%29.93 "Hg15 mi
12:00 AM55 °FPassing clouds.6 mph82%29.92 "Hg15 mi
11:00 PM
Tue, Sep 27
52 °FPassing clouds.5 mph82%29.90 "Hg15 mi
Weather by CustomWeather, © 2016

See weather overviewHow to use our weather pages